Theta_e
333 333 333 332 333 333 332 333 335 334 333 333 333 334 334 334 334 335 335 334 334 334 332 332 332 333 333 333 332 331 331 331 330 331 332 331 330 330 330 330 331 331 329 327 327 328 329 330 329 329 329 329 329 328 328 328 329 329 329 328 328 329 328
333 333 332 331 332 332 333 332 333 334 333 333 333 334 334 334 333 334 334 334 333 333 332 332 332 333 333 333 332 331 331 331 331 331 332 332 331 330 330 331 331 330 328 328 327 327 328 329 331 329 328 328 328 328 329 328 329 328 328 328 328 328 328
333 333 332 331 332 333 333 332 331 332 332 332 334 334 334 334 334 333 334 334 333 332 332 332 332 333 333 332 332 331 331 331 332 332 332 332 332 331 331 331 330 329 328 327 327 328 327 328 330 329 328 328 328 328 329 329 328 328 328 328 328 328 328
332 332 331 330 332 333 333 332 331 331 332 333 335 334 334 334 334 333 333 333 333 332 332 333 333 333 332 332 332 332 332 332 332 332 332 332 332 331 331 331 331 329 329 328 327 328 327 326 328 329 328 328 328 328 329 329 329 328 328 328 328 328 328
332 331 331 330 331 333 333 333 331 331 332 333 334 334 334 334 334 334 333 333 333 333 333 333 333 333 333 332 333 333 333 332 332 332 333 332 332 331 331 331 331 330 329 328 328 328 327 327 327 328 328 328 328 328 328 328 328 328 328 328 328 327 328
332 330 330 330 331 333 333 332 332 331 332 333 334 334 334 334 333 333 333 333 333 333 333 333 333 333 333 333 333 333 333 332 332 332 332 333 332 331 331 331 331 331 329 329 328 328 328 327 327 327 328 327 327 327 327 328 328 328 327 327 327 327 327
331 330 330 329 330 332 332 331 331 332 333 333 334 334 334 334 333 333 333 333 333 333 333 333 333 333 333 333 333 333 332 332 331 332 332 332 332 331 331 331 331 331 330 329 329 328 328 327 326 326 327 327 327 326 326 327 327 327 326 326 326 326 326
332 330 330 330 330 331 331 331 331 332 333 333 334 334 333 333 333 332 333 332 333 334 334 333 333 333 333 333 332 332 332 332 331 331 331 331 332 331 331 331 331 331 330 329 330 329 328 327 327 326 326 327 327 327 326 326 326 326 326 326 325 325 325
332 331 331 330 330 331 332 332 332 332 333 333 333 333 333 333 333 333 333 332 333 334 333 333 333 333 333 332 332 332 332 331 331 330 331 331 331 331 331 330 330 330 330 329 329 329 329 328 327 327 326 326 327 327 326 326 326 325 325 325 325 325 324
332 332 331 331 331 332 332 332 332 332 333 332 333 332 332 332 333 333 333 332 333 333 332 333 333 332 333 332 331 331 331 331 330 330 331 332 332 331 330 330 330 330 329 329 329 329 329 328 327 327 326 326 326 326 327 328 326 324 324 325 325 324 323
332 332 332 332 332 332 332 332 333 333 333 332 332 331 332 332 332 332 332 331 332 331 331 331 331 331 331 330 329 329 329 330 330 331 332 332 332 331 331 331 331 330 329 329 330 329 329 329 328 327 327 326 325 325 325 326 326 324 324 325 325 323 322
332 332 332 332 332 332 332 332 332 333 333 332 332 331 331 332 331 331 330 330 330 329 329 329 329 329 328 327 328 329 329 330 331 332 332 332 332 331 331 331 331 330 330 330 330 329 328 329 328 328 327 327 325 324 324 325 326 325 324 324 325 323 321
331 332 332 332 332 332 332 332 332 333 332 332 331 331 331 331 330 329 329 329 329 328 327 328 328 327 327 327 328 329 330 331 332 332 331 331 331 330 331 331 331 330 330 330 330 329 328 328 328 328 327 327 326 325 324 324 325 324 323 324 324 323 322
330 331 331 332 332 331 331 331 332 332 332 332 331 330 331 331 329 328 327 328 327 326 326 327 328 327 327 328 328 329 330 331 331 330 330 330 329 329 330 330 330 329 329 329 328 328 328 328 328 328 327 327 326 325 325 324 323 322 323 324 324 323 322
330 331 331 331 331 331 331 331 331 331 331 331 331 328 329 330 328 327 327 327 326 325 325 326 327 327 327 328 328 329 330 330 329 328 329 329 329 329 329 328 328 328 328 328 327 327 327 327 327 327 327 328 327 326 325 324 323 322 322 323 323 322 321
330 330 331 331 331 331 331 330 330 331 331 330 329 327 327 328 327 327 327 326 325 325 325 325 325 326 327 327 328 328 328 327 327 327 328 328 329 329 328 327 327 328 328 327 327 327 326 326 326 326 326 327 327 327 326 325 324 323 322 322 322 322 321
329 330 330 331 331 331 331 330 330 331 330 328 327 327 327 327 327 326 325 325 325 325 325 325 325 325 326 326 325 326 325 325 325 326 326 327 329 328 328 327 328 328 328 327 327 326 325 324 324 325 326 327 327 326 326 325 324 323 322 321 321 321 322
328 328 328 328 329 329 328 329 330 330 329 328 327 327 327 327 326 325 324 324 324 325 325 325 325 325 325 324 323 323 323 322 323 324 324 325 328 328 328 328 328 328 327 326 326 325 325 324 323 323 323 325 326 326 326 325 324 322 321 321 321 321 321
328 328 327 326 326 326 326 327 328 328 327 328 327 326 326 326 325 324 324 324 324 324 325 325 325 324 323 323 322 321 320 319 320 322 322 323 326 328 328 328 328 328 327 326 324 322 321 322 321 320 320 321 324 325 325 324 324 322 321 321 321 320 320
328 328 328 327 327 327 327 327 326 325 325 326 326 326 325 325 324 324 324 323 323 323 324 324 323 321 320 320 320 319 318 318 319 320 322 323 326 327 328 329 328 327 326 324 322 320 319 319 319 319 319 319 321 322 322 322 322 321 321 320 320 319 319
328 327 327 327 327 327 326 326 326 324 324 325 326 325 324 323 324 324 324 322 322 322 322 322 321 320 318 318 319 319 319 319 320 322 323 325 326 327 327 327 326 325 322 321 320 320 319 319 319 318 318 318 319 319 320 319 319 319 319 319 319 318 317
327 327 327 326 326 326 324 325 325 324 323 325 325 323 322 323 324 324 323 322 322 322 321 321 321 320 320 318 319 320 320 320 321 324 325 326 325 325 325 324 323 322 321 320 320 320 320 319 319 318 318 318 318 318 318 317 316 317 318 318 317 316 315
326 326 327 326 325 325 324 325 325 324 324 325 324 321 322 324 324 324 323 323 322 322 321 321 321 320 319 318 319 321 321 321 322 324 325 324 323 322 321 320 320 320 320 320 320 320 319 319 319 319 319 319 319 319 318 317 316 315 315 315 314 313 312
325 327 327 325 324 325 325 325 324 324 324 324 322 321 322 323 323 323 323 322 322 322 321 321 319 318 318 318 319 321 322 322 323 324 324 322 320 319 319 319 319 319 319 319 319 318 318 318 318 318 318 319 319 319 319 319 319 318 316 315 314 313 312
325 326 326 325 324 324 324 324 323 323 323 323 322 321 321 321 322 322 322 322 322 322 321 319 317 317 319 319 319 320 321 322 323 322 321 320 320 319 320 320 320 320 319 320 320 320 320 319 319 318 318 317 318 318 318 319 319 319 318 317 317 316 316
325 325 325 324 324 324 323 322 322 323 322 322 321 320 319 320 320 320 320 320 321 320 319 318 318 319 321 321 320 320 321 321 321 321 320 320 320 320 320 320 320 320 320 320 320 320 320 320 320 320 320 319 319 319 319 318 318 318 318 318 318 318 317
323 323 323 323 322 322 321 321 321 321 321 320 319 318 317 318 318 318 319 320 320 320 320 320 320 321 321 322 322 321 321 321 321 320 320 319 319 319 320 320 320 320 320 320 319 320 320 320 320 320 321 321 321 321 321 321 321 321 321 320 321 320 319
320 321 321 321 321 320 320 320 318 318 318 318 318 317 316 317 317 318 318 319 320 321 322 322 321 321 322 322 322 321 321 320 319 318 318 318 318 319 319 320 320 320 319 319 319 319 319 319 320 320 321 321 321 321 322 322 322 322 321 321 321 321 320
318 319 319 320 320 319 318 318 316 314 314 315 315 316 316 316 316 316 316 317 319 319 320 321 320 319 320 320 321 320 318 317 316 316 318 319 318 319 319 319 319 319 319 319 319 319 319 319 320 320 320 321 321 320 321 321 321 321 320 320 320 320 319
317 317 318 318 317 317 316 315 314 312 310 311 312 313 314 315 315 315 315 316 316 316 316 317 318 317 316 316 317 316 315 315 315 316 319 320 319 319 319 319 319 319 319 318 318 318 319 320 320 320 320 321 321 321 320 320 320 320 320 319 319 319 318
316 316 316 315 315 315 314 313 312 312 311 311 311 311 312 314 314 315 315 315 315 315 315 316 318 317 316 316 316 316 315 315 315 316 318 319 319 319 319 318 318 318 317 317 317 317 318 318 318 318 318 318 318 318 319 319 319 318 318 318 318 318 318
317 316 315 315 314 315 315 314 313 312 312 311 311 311 312 313 313 314 314 314 315 315 315 316 317 317 317 316 317 316 316 316 317 317 317 317 317 316 316 316 315 315 315 315 314 314 314 314 315 314 314 314 313 313 313 314 314 314 315 316 317 317 317
316 316 316 315 315 314 315 315 314 313 312 311 311 311 312 312 312 312 313 313 314 315 315 316 317 318 318 317 316 317 317 317 317 316 314 314 313 312 312 312 312 312 312 311 311 310 309 309 310 309 310 310 309 308 307 308 309 309 310 313 315 316 317
315 315 315 315 315 313 312 313 314 314 313 311 309 309 309 309 309 308 309 311 311 311 312 313 315 316 317 318 317 317 318 317 315 314 312 311 311 310 310 310 311 310 310 310 309 307 305 304 304 303 303 304 304 305 305 306 307 308 309 311 313 314 315
313 313 313 314 314 312 309 309 310 311 310 309 307 306 305 306 305 304 305 306 306 306 307 310 312 314 315 316 317 317 316 314 313 313 312 311 310 311 310 310 310 308 307 306 304 302 300 300 300 300 301 302 303 304 306 307 307 308 308 309 310 310 311
312 311 310 310 310 309 307 305 305 307 307 307 306 303 301 302 302 302 302 302 301 301 302 304 307 309 311 312 313 314 313 312 311 312 313 312 311 310 309 307 305 303 301 299 299 299 299 300 301 301 302 302 303 303 303 303 303 303 303 303 303 304 306
309 309 308 308 307 306 305 304 303 303 304 304 303 301 299 299 300 299 299 298 298 297 298 298 299 302 304 306 307 308 309 309 309 309 310 309 306 304 301 300 299 299 298 298 299 300 301 302 302 303 303 302 302 301 301 301 300 300 299 299 300 302 304
Wind_Speed
16 16 16 15 16 17 16 16 17 16 15 16 17 18 19 19 19 20 19 18 17 16 16 15 16 18 19 18 18 19 19 20 20 22 25 22 19 18 14 9 5 4 11 13 12 9 4 1 3 4 5 6 7 7 7 7 9 9 8 8 8 8 8
18 18 16 13 14 16 16 16 16 16 15 16 17 18 17 17 18 19 18 17 16 16 16 15 16 17 19 19 18 19 19 19 19 20 23 23 20 18 16 10 5 8 11 10 12 11 6 4 3 2 4 6 6 7 7 7 8 9 8 7 7 8 8
16 17 15 13 13 14 14 14 13 15 16 17 18 18 17 17 18 18 17 16 16 16 16 15 16 17 18 18 17 17 17 18 18 18 18 19 19 18 17 13 9 12 11 7 10 12 8 5 3 3 6 6 5 6 7 7 7 8 8 8 7 8 8
19 17 15 13 14 14 13 11 11 14 16 17 17 17 17 17 17 17 16 15 16 15 16 16 16 16 17 17 15 15 16 16 17 17 16 16 18 18 18 15 13 14 12 10 15 16 11 7 5 4 7 7 6 7 6 7 7 6 8 8 8 9 9
22 19 16 14 15 15 13 10 9 12 14 15 16 16 17 16 16 16 15 15 16 16 17 18 17 17 17 16 14 15 15 16 18 17 16 16 18 19 19 16 14 14 15 14 17 19 15 13 11 7 6 7 6 5 7 7 7 7 7 7 8 9 10
21 20 18 16 16 16 14 13 12 13 14 15 16 17 17 16 16 16 16 16 17 17 18 18 17 17 17 15 14 15 15 15 17 17 17 16 17 18 18 17 15 14 15 13 13 17 15 14 15 10 8 8 5 4 6 7 7 7 6 6 7 8 9
21 21 19 18 17 17 16 16 16 16 16 16 16 17 17 16 15 16 16 17 18 18 17 17 17 17 16 15 14 15 15 15 15 16 17 16 16 17 16 16 15 14 14 12 11 15 16 15 17 15 11 7 5 6 5 5 8 6 5 7 7 7 7
21 21 21 20 19 19 18 17 18 18 17 16 15 14 14 14 15 16 17 17 17 18 18 17 16 15 15 15 15 15 15 15 14 15 16 15 16 16 15 15 14 13 14 13 11 14 16 16 17 20 18 9 4 5 4 3 7 7 6 8 7 7 7
20 19 21 21 20 19 17 17 17 16 15 15 13 12 13 14 15 16 17 18 17 17 17 17 16 16 16 16 15 15 15 15 15 15 15 14 14 14 13 13 14 13 13 13 12 13 16 17 16 20 23 17 8 4 2 3 5 5 7 9 8 8 8
22 20 22 22 20 17 16 17 16 14 14 14 13 14 15 14 15 16 17 17 18 17 16 16 16 16 16 15 14 14 14 15 15 15 14 14 13 12 11 12 12 12 12 13 12 13 16 17 16 19 22 22 16 9 3 3 4 5 8 10 10 8 7
23 23 23 23 21 19 18 18 17 15 15 16 15 16 17 16 16 17 17 17 17 16 15 15 15 14 14 13 12 13 13 14 14 14 14 13 12 12 12 11 10 10 11 11 11 12 14 16 17 19 22 22 18 13 9 5 4 8 10 11 11 9 7
24 23 23 22 21 20 19 19 19 17 16 17 18 19 19 18 17 17 16 16 16 16 14 14 15 15 14 13 13 12 12 13 13 13 12 11 11 12 12 12 10 10 11 11 10 10 12 14 16 19 22 21 17 14 13 9 3 8 13 12 12 10 6
23 23 22 22 21 20 20 20 19 18 17 18 19 20 20 19 18 17 16 16 17 16 15 15 17 17 15 14 13 13 13 13 12 11 11 11 11 11 12 12 11 10 10 11 10 10 11 12 14 18 21 21 18 13 11 9 4 6 13 13 12 11 8
21 22 22 21 21 20 20 20 20 20 20 21 20 19 19 20 19 18 18 17 17 16 15 16 17 17 15 14 13 13 13 12 11 10 10 11 11 11 12 12 10 10 10 10 10 9 9 10 12 16 19 20 19 15 12 10 6 7 10 12 12 11 10
18 19 21 20 20 20 21 21 21 21 23 23 21 18 19 20 21 21 19 18 17 16 15 15 16 16 15 14 13 13 13 12 12 11 10 10 10 10 11 11 10 10 10 9 9 9 8 9 11 15 19 20 20 18 16 12 9 9 11 12 13 13 12
17 18 19 19 18 19 21 21 21 23 25 24 22 20 20 21 21 20 18 17 16 15 15 15 15 15 15 15 14 14 13 12 11 11 11 10 10 10 10 10 10 10 9 8 8 8 7 9 11 14 19 21 20 20 18 16 12 11 13 14 15 15 14
15 16 17 18 18 19 21 23 22 24 25 24 23 23 21 20 19 17 16 16 16 16 17 15 15 16 16 15 14 13 12 11 11 11 10 10 10 10 10 10 10 8 8 9 8 8 7 7 9 14 18 20 20 21 20 19 17 14 14 15 16 16 15
12 12 12 12 13 16 18 21 23 24 24 24 23 23 22 20 17 15 16 16 16 17 17 16 16 16 14 12 11 11 11 10 10 10 10 9 8 9 9 9 10 8 8 9 7 7 9 9 10 14 17 18 19 20 21 21 21 18 16 16 16 16 16
12 12 11 8 8 10 13 16 20 22 23 24 23 23 21 19 17 17 17 16 15 17 17 17 16 14 13 11 11 11 11 10 10 11 11 9 8 9 9 9 9 8 8 8 7 7 9 10 11 11 13 16 18 20 21 22 22 21 18 16 15 16 17
10 13 13 12 12 13 15 17 19 19 21 24 23 21 20 19 19 19 18 16 16 17 18 17 15 13 11 10 10 10 10 11 12 11 11 10 9 8 10 10 9 8 8 8 9 9 8 8 7 5 5 9 14 16 18 19 21 21 18 15 15 15 16
10 13 13 14 16 18 18 20 21 20 20 22 21 19 19 20 21 20 18 17 17 17 17 16 15 13 11 9 9 9 11 13 13 11 10 9 8 8 9 10 10 10 10 10 10 10 8 7 6 5 4 3 6 10 13 15 17 17 17 16 17 16 16
11 13 14 16 18 20 21 22 23 21 21 21 19 18 19 21 21 20 19 18 17 17 16 15 15 14 11 10 9 9 13 15 14 12 11 10 10 12 12 12 13 13 12 12 10 9 8 7 6 6 6 4 4 4 6 9 12 13 15 16 15 14 13
13 14 17 18 18 20 22 21 22 21 21 21 21 20 20 20 20 19 18 18 17 17 16 15 15 15 12 11 10 10 14 18 16 13 14 15 16 16 16 16 15 14 12 11 9 8 8 7 6 5 5 4 4 3 3 5 6 9 13 14 13 12 12
15 15 18 19 17 17 20 20 19 20 21 22 21 20 21 20 19 18 18 18 17 16 16 15 15 15 13 12 13 13 16 18 17 16 17 18 18 18 17 16 15 13 11 9 8 7 6 5 5 5 4 3 3 3 4 5 5 6 8 9 10 10 11
15 16 19 20 18 18 20 19 18 19 20 21 19 18 20 20 19 18 18 17 16 15 15 14 14 14 14 15 15 16 17 18 19 20 20 19 18 16 15 12 10 8 8 7 6 6 5 4 4 4 3 3 4 4 5 6 7 7 7 7 8 8 9
14 15 18 19 20 20 19 18 19 20 20 20 20 19 20 20 20 19 18 17 15 14 14 14 15 16 18 19 18 18 19 20 21 21 19 17 15 12 10 7 4 4 4 4 3 3 3 3 3 3 2 2 3 4 5 5 6 6 6 6 6 6 6
12 13 15 15 15 17 16 16 20 22 21 21 21 21 21 21 21 20 19 18 17 17 18 17 18 19 20 20 20 20 21 21 20 18 15 12 10 8 7 5 4 3 2 2 1 1 1 1 1 1 1 1 2 3 3 4 4 3 3 3 2 2 2
12 13 15 15 15 14 15 17 19 21 23 24 24 23 24 23 23 22 22 22 22 21 21 21 21 21 21 21 21 22 21 19 16 14 11 9 7 7 6 5 4 2 1 1 2 3 3 3 3 2 2 2 3 3 3 3 3 3 2 2 2 2 2
14 15 16 16 17 17 18 20 20 20 23 25 26 26 26 24 24 24 24 24 26 25 24 23 23 22 22 22 22 21 18 15 13 12 12 11 9 9 8 6 4 3 2 2 1 2 4 4 3 2 2 3 3 2 2 2 2 2 2 2 2 2 3
18 18 19 19 20 21 20 22 23 22 23 27 27 27 27 26 24 23 22 22 22 23 21 21 21 20 18 18 19 18 15 14 13 11 10 11 11 10 9 7 6 5 3 2 1 0 2 2 2 1 1 2 3 3 2 1 1 2 3 3 3 3 3
19 21 21 21 23 25 24 24 25 25 26 28 28 27 28 27 24 21 20 18 17 16 15 14 14 16 14 12 14 15 14 14 15 13 11 12 12 11 10 8 6 4 3 1 1 1 1 0 1 1 2 2 2 3 3 3 3 4 4 4 3 3 4
17 19 20 19 21 26 28 27 26 25 26 28 27 26 26 26 25 21 18 15 13 13 12 10 9 10 11 10 10 12 13 15 17 17 15 14 12 11 10 8 6 5 4 3 3 3 2 2 2 2 3 3 4 5 5 5 5 5 5 4 4 4 4
15 16 17 16 18 22 25 26 25 25 25 26 26 25 23 23 23 22 18 15 13 13 13 11 9 8 9 10 8 9 12 15 17 18 16 15 14 12 11 10 8 8 7 7 6 6 5 4 4 4 4 4 4 5 5 5 6 6 6 5 4 4 5
16 16 16 15 16 18 21 23 24 24 24 24 24 25 24 22 23 23 20 18 17 16 14 13 11 8 8 10 10 10 12 14 16 17 16 14 13 12 11 9 9 8 7 7 6 5 5 5 5 5 5 5 5 5 5 6 6 6 6 6 5 4 4
16 17 16 16 17 17 19 21 24 25 25 24 24 24 24 23 24 23 21 19 18 17 16 14 12 10 8 8 9 10 12 13 13 13 14 13 11 10 9 8 7 7 6 5 5 4 4 4 4 4 5 6 7 7 7 7 7 7 8 8 8 8 8
18 19 18 18 20 20 20 21 24 25 24 24 25 25 24 23 23 23 21 20 18 16 15 14 12 11 10 10 10 10 12 12 11 9 10 11 10 9 8 6 5 5 5 5 5 5 5 5 6 7 9 10 10 10 10 10 9 9 10 11 11 11 11
21 21 21 21 22 23 22 22 23 23 23 24 25 24 22 22 23 23 21 20 17 15 14 13 11 10 10 9 9 10 10 10 9 7 8 9 9 8 7 6 6 6 7 8 8 9 9 9 10 12 12 13 12 12 12 12 13 14 15 16 15 14 13
Wind_Direction
233 236 235 232 232 236 237 234 232 230 225 216 203 199 201 201 206 207 201 201 200 199 204 208 211 212 208 204 203 201 198 198 198 192 187 185 185 189 195 214 251 211 185 186 182 165 133 133 179 182 201 210 204 202 211 216 212 213 217 219 221 227 229
237 243 242 238 234 231 231 230 230 231 226 212 200 198 200 201 204 204 199 199 198 198 204 208 213 213 209 205 201 199 200 202 204 200 194 191 193 196 198 206 206 173 176 185 179 163 138 147 158 142 176 189 195 198 208 210 207 210 215 217 219 224 228
239 244 243 234 228 222 221 220 219 223 219 202 193 193 193 195 198 201 202 200 196 199 203 205 206 206 203 202 200 199 203 207 206 206 206 202 203 203 200 200 182 164 163 166 173 165 145 149 151 139 166 176 178 184 200 206 202 209 214 217 226 233 234
242 240 237 228 226 221 216 213 206 211 210 196 188 187 185 187 193 200 204 201 197 200 200 198 195 194 195 195 196 199 201 207 209 211 215 215 214 208 203 209 206 191 188 187 183 174 159 152 145 140 162 170 169 174 194 204 200 209 215 219 232 243 245
244 239 233 226 225 219 209 206 203 204 201 191 187 188 185 186 192 199 203 200 198 198 195 192 191 191 191 190 195 200 201 206 210 214 216 219 219 211 208 218 224 221 217 209 194 184 178 170 159 147 152 157 157 172 187 192 199 214 220 225 235 242 249
244 241 235 226 221 217 207 199 194 195 196 193 192 193 192 190 194 200 203 201 199 196 191 189 191 191 190 190 195 198 200 205 210 215 217 218 221 218 217 222 226 227 224 221 207 194 188 171 158 148 149 156 145 144 172 184 197 215 228 238 244 243 249
241 241 236 227 220 217 212 201 194 195 199 201 197 196 194 192 197 204 206 203 199 195 192 190 190 190 191 195 199 201 203 206 209 213 215 217 219 219 222 224 225 225 219 220 219 205 195 179 165 156 149 151 138 130 147 189 195 202 223 239 250 253 254
239 240 237 233 225 220 216 207 201 200 202 206 204 202 201 199 202 205 204 201 197 194 193 191 190 190 193 197 201 205 206 206 207 208 210 213 214 216 223 226 224 223 216 216 224 217 208 201 186 170 157 145 126 134 141 189 194 200 215 226 237 247 257
233 236 237 235 229 225 220 214 209 205 201 202 206 209 208 204 205 203 199 197 196 195 194 192 192 194 196 199 203 204 204 205 204 204 205 207 210 214 220 222 221 222 221 221 227 223 216 215 205 184 169 160 151 144 159 195 195 203 217 221 224 234 247
223 228 233 231 226 222 216 213 212 204 193 193 200 203 199 199 202 199 194 193 195 194 193 194 195 196 198 201 203 201 201 201 200 202 204 203 206 210 212 214 218 223 225 224 223 221 217 214 209 197 187 178 165 150 157 208 204 195 208 219 224 235 237
217 221 225 225 222 215 207 205 206 200 190 188 191 191 189 192 193 190 187 187 189 188 188 191 192 194 197 198 197 194 194 196 197 199 203 203 206 211 211 212 217 221 223 219 217 218 216 215 212 204 197 188 176 168 170 174 205 206 205 215 223 233 233
214 215 218 220 218 212 204 199 198 198 193 189 186 183 184 187 185 184 186 186 185 183 184 189 188 189 191 193 194 192 190 192 195 196 199 206 211 212 211 212 213 213 215 218 220 220 215 216 216 207 198 193 189 188 183 166 167 210 209 216 220 223 229
213 213 215 217 215 211 205 197 193 194 193 189 185 183 182 182 181 182 184 184 181 180 183 187 188 190 194 199 200 198 195 195 197 199 201 206 211 211 210 210 213 212 215 221 221 217 214 214 215 210 203 200 200 204 200 182 155 186 204 219 225 221 223
213 213 213 214 214 210 204 198 192 191 189 184 183 188 188 182 179 177 175 175 176 177 181 184 187 194 200 205 204 200 198 193 192 195 196 198 201 205 208 210 212 211 209 213 210 206 209 210 212 212 210 208 208 211 216 205 173 165 192 212 224 226 224
212 212 211 211 212 208 202 199 194 190 186 178 176 188 191 182 179 178 175 175 176 178 181 181 185 196 202 201 196 192 189 184 183 186 189 192 192 194 203 204 201 198 194 196 200 200 202 203 206 215 218 218 216 218 224 220 194 177 187 201 214 223 222
212 212 212 211 211 207 201 198 194 189 184 175 169 180 188 183 180 183 183 183 184 182 181 180 184 192 194 188 182 181 181 181 187 192 192 192 189 188 194 193 187 187 185 181 187 190 195 198 202 217 226 225 223 224 228 228 216 198 191 195 208 218 218
212 214 216 215 212 204 198 194 192 188 182 173 169 178 188 187 185 189 191 190 189 184 180 180 181 183 183 182 181 183 185 192 200 202 196 191 188 184 184 184 183 185 180 174 179 187 193 199 204 215 226 228 228 230 230 230 228 218 203 198 206 216 220
206 216 221 217 207 195 190 189 189 187 180 173 173 181 189 191 190 193 191 186 184 183 182 182 181 182 184 187 190 193 197 203 205 204 203 200 195 187 182 182 182 178 167 165 176 196 203 216 224 222 223 226 228 231 232 231 229 226 221 211 206 211 218
201 210 213 207 195 189 190 190 189 188 180 173 175 184 189 191 191 189 184 178 177 180 182 183 183 185 190 194 200 207 211 210 206 208 211 209 203 194 187 184 179 167 160 167 177 187 196 213 224 222 219 220 223 229 232 232 227 226 230 225 214 213 215
200 205 204 196 190 192 195 195 192 191 185 176 177 185 189 189 188 183 177 173 172 173 176 180 182 183 186 192 200 207 207 202 202 207 207 201 197 193 186 182 173 159 157 165 165 160 162 176 186 186 194 206 215 224 228 226 222 222 225 224 220 219 217
198 201 196 185 182 184 189 192 190 190 189 181 179 186 189 185 181 178 176 173 170 169 172 177 181 182 184 186 186 189 189 188 190 190 187 184 181 175 170 166 158 147 144 143 137 132 131 135 141 135 124 158 199 212 217 217 216 218 221 222 223 223 221
189 189 183 177 177 181 184 185 183 186 190 185 182 186 186 182 179 178 177 175 170 170 173 177 181 186 192 186 181 187 186 181 178 174 164 152 147 145 142 138 135 132 130 127 121 116 112 112 121 127 116 110 133 168 199 209 213 216 216 216 219 220 219
187 184 179 174 172 179 182 179 180 189 193 187 185 187 186 185 185 182 179 177 174 174 178 181 185 191 193 186 180 177 171 169 169 164 151 140 135 133 130 125 121 121 119 115 110 106 104 104 108 118 123 123 125 130 161 188 204 214 215 214 216 217 219
190 184 180 177 179 185 186 185 189 193 191 187 187 189 191 191 191 187 182 179 178 180 184 188 190 189 185 181 178 168 160 160 160 155 146 140 134 129 124 118 111 109 106 101 97 93 88 87 93 106 125 148 167 181 189 186 185 195 206 208 208 211 216
192 184 179 181 189 189 185 188 194 191 185 185 188 189 190 191 189 186 183 180 179 182 186 188 187 180 171 170 170 164 160 158 153 146 140 136 132 126 117 111 106 105 101 94 93 92 87 81 80 92 112 141 167 180 191 197 195 194 201 200 196 204 216
185 182 179 184 191 190 182 180 184 183 177 178 180 180 179 179 177 177 177 176 173 171 172 173 171 165 160 159 158 155 153 150 142 135 130 126 123 119 110 101 99 101 97 91 84 79 80 80 81 89 105 139 169 174 175 183 188 195 209 214 215 228 241
157 164 168 172 180 184 178 167 167 170 170 168 166 164 163 162 160 160 162 162 157 152 152 153 155 157 156 154 152 148 143 138 130 125 120 115 113 113 109 101 96 90 81 66 29 357 350 347 9 51 93 172 199 201 187 181 177 178 193 213 232 264 279
123 136 144 150 155 158 157 153 150 152 156 157 155 151 149 148 147 144 143 144 142 138 135 137 142 148 152 150 147 143 139 135 130 126 122 119 121 127 124 113 103 99 87 43 347 320 309 300 299 315 312 239 222 219 208 197 189 183 185 206 231 266 278
105 113 122 133 138 135 136 141 139 133 134 138 140 139 137 135 134 133 132 133 134 131 128 129 132 136 142 146 146 143 138 131 126 126 129 134 141 144 138 135 143 156 168 178 248 292 297 292 282 278 265 240 234 236 218 196 190 197 212 234 251 270 282
94 99 104 111 118 120 122 127 131 127 120 120 121 121 122 120 118 118 119 120 123 125 126 130 133 135 138 145 148 147 141 132 127 130 139 143 147 149 148 155 169 173 177 177 152 270 293 286 278 265 253 252 261 269 264 255 270 284 294 300 302 307 315
88 91 93 97 107 117 119 118 122 124 119 115 112 110 111 112 109 106 104 103 106 111 114 123 137 143 145 149 151 149 147 144 143 149 155 149 146 151 155 160 169 170 170 163 82 54 26 68 105 99 77 50 360 324 313 314 314 316 324 330 332 338 338
88 90 92 93 100 110 115 116 119 120 115 111 109 105 104 105 103 101 99 99 102 105 107 116 137 150 154 162 164 159 157 154 149 150 153 147 141 144 146 145 143 139 130 109 86 73 68 69 70 68 62 52 39 18 2 356 349 343 346 345 338 341 340
84 90 97 103 104 108 114 118 119 117 114 113 113 111 108 106 104 103 104 107 109 108 111 118 130 144 153 158 163 167 168 161 152 147 146 142 138 136 132 129 126 120 114 105 95 86 80 72 62 56 50 49 51 43 28 20 10 4 6 358 339 332 330
82 88 98 112 116 113 116 120 121 120 120 119 116 112 111 110 107 104 106 109 108 105 105 108 111 123 145 154 161 173 172 160 152 147 141 136 136 132 127 126 123 117 111 105 97 88 80 73 68 66 64 63 63 56 46 40 32 30 33 31 21 12 358
80 86 94 109 115 113 114 118 121 123 124 121 115 110 109 111 109 106 105 106 103 99 97 97 100 106 119 137 150 162 160 150 148 150 144 137 135 134 130 129 123 116 111 106 101 97 90 85 81 77 74 73 68 63 59 54 47 42 40 39 35 32 29
81 85 90 100 107 108 108 109 111 116 120 119 114 108 106 108 109 106 102 101 98 96 95 97 101 104 107 115 127 139 145 144 145 152 148 142 141 141 140 139 130 123 125 127 127 127 122 116 105 93 86 81 75 69 64 58 54 50 46 42 37 33 31
83 87 91 96 100 101 103 102 101 104 109 111 109 104 99 100 101 99 97 97 96 97 99 99 100 103 105 113 122 130 139 144 147 153 153 149 148 147 146 143 136 135 139 140 138 136 129 119 109 101 94 88 81 74 68 64 61 58 52 49 46 43 38